Stations météo

Publicité
Cap Ferret, France (7500): Température de l'air & dewpoint: 11.12.2017 22:00:00 - 17.12.2017 22:00:00 (CET)Cap Ferret, France (7500): Vitesse du vent & gusts: 11.12.2017 22:00:00 - 17.12.2017 22:00:00 (CET)Cap Ferret, France (7500): Direction du vent: 11.12.2017 22:00:00 - 17.12.2017 22:00:00 (CET)Cap Ferret, France (7500): reduced air pressure: 11.12.2017 22:00:00 - 17.12.2017 22:00:00 (CET)Cap Ferret, France (7500): visibility: 11.12.2017 22:00:00 - 17.12.2017 22:00:00 (CET)Cap Ferret, France (7500): Ensoleillement: 11.12.2017 22:00:00 - 17.12.2017 22:00:00 (CET)Cap Ferret, France (7500): Quantités de précipitations: 11.12.2017 22:00:00 - 17.12.2017 22:00:00 (CET)
Date & Time tt [°C] td [°C] ff [km/h] ff [knt] fx [km/h] fx [knt] dd ppp [hPa] vv [km] sd [min] rr [mm]
17.12.2017 22:00:00 9,5 7,3 12 6 32 17 NE 1033,2 10 0 0,2
17.12.2017 21:00:00 10,1 5,9 16 8 29 16 NW 1032,7 - 0 0,0
17.12.2017 20:00:00 8,1 5,2 9 5 27 15 NW 1032,4 - 0 0,0
17.12.2017 19:00:00 9,7 6,6 9 5 33 18 N 1032,2 10 0 0,0
17.12.2017 18:00:00 9,4 6,8 13 7 42 23 NW 1031,7 - 0 0,4
17.12.2017 17:00:00 9,7 7,0 17 9 31 17 NW 1031,6 - 6 0,0
17.12.2017 16:00:00 9,8 6,9 21 11 42 23 NNW 1031,0 15 0 1,6
17.12.2017 15:00:00 9,5 7,3 8 4 40 22 NNW 1030,7 - 0 1,8
17.12.2017 14:00:00 10,8 6,3 11 6 47 25 NNW 1030,7 15 16 0,0
17.12.2017 13:00:00 12,6 5,5 24 13 39 21 NW 1030,8 15 60 0,0
17.12.2017 12:00:00 11,3 5,0 25 13 38 20 NW 1031,1 - 31 0,0
17.12.2017 11:00:00 9,9 5,3 34 18 47 25 W 1031,3 - 1 0,0
17.12.2017 10:00:00 8,6 5,0 23 12 31 17 WNW 1030,8 8 0 0,0
17.12.2017 09:00:00 6,4 5,3 15 8 23 12 NW 1030,3 - 0 0,0
17.12.2017 08:00:00 4,7 3,7 10 5 13 7 S 1030,1 - 0 0,0
17.12.2017 07:00:00 4,0 3,0 8 4 11 6 S 1029,8 8 0 0,0
17.12.2017 06:00:00 4,1 3,1 5 3 11 6 ESE 1029,9 - 0 0,0
17.12.2017 05:00:00 3,4 2,5 6 4 15 8 E 1029,7 - 0 0,0
17.12.2017 04:00:00 2,4 1,1 9 5 13 7 SE 1029,4 10 0 0,0
17.12.2017 03:00:00 2,8 1,3 7 4 15 8 ENE 1029,3 - 0 0,0
17.12.2017 02:00:00 2,4 0,9 7 4 11 6 E 1029,2 - 0 0,0
17.12.2017 01:00:00 3,4 1,6 2 1 5 3 ENE 1029,2 10 0 0,0
17.12.2017 00:00:00 4,2 2,9 6 4 11 6 WSW 1029,3 - 0 0,2
16.12.2017 23:00:00 4,0 2,5 8 5 11 6 ESE 1028,8 - 0 0,0
16.12.2017 22:00:00 3,2 1,1 8 4 14 7 ENE 1028,5 10 0 0,0
16.12.2017 21:00:00 4,2 1,6 12 7 16 8 NE 1028,0 - 0 0,0
16.12.2017 20:00:00 4,5 1,3 10 5 17 9 NNE 1027,2 - 0 0,0
16.12.2017 19:00:00 5,8 2,1 12 7 21 11 NNE 1026,4 10 0 0,0
16.12.2017 18:00:00 6,3 2,2 13 7 21 12 N 1025,5 - 0 0,0
16.12.2017 17:00:00 7,1 2,4 13 7 21 11 N 1024,9 - 19 0,0
16.12.2017 16:00:00 7,7 2,8 13 7 23 12 N 1024,1 15 1 0,0
16.12.2017 15:00:00 9,4 4,2 6 4 15 8 NW 1023,3 - 8 0,0
16.12.2017 14:00:00 9,3 3,1 4 2 9 5 NNW 1023,1 - 19 0,0
16.12.2017 13:00:00 9,0 2,8 4 2 14 7 NNW 1022,9 15 24 0,0
16.12.2017 12:00:00 8,2 3,4 4 2 9 5 WNW 1022,8 - 14 0,0
16.12.2017 11:00:00 8,1 3,7 6 3 13 7 E 1022,1 - 55 0,0
16.12.2017 10:00:00 6,2 3,4 4 2 18 10 ENE 1021,1 - 28 0,0
16.12.2017 09:00:00 4,9 3,1 12 6 17 9 NE 1020,1 - 1 0,0
16.12.2017 08:00:00 5,1 3,3 6 3 16 9 ENE 1019,2 12 0 0,0
16.12.2017 07:00:00 5,7 3,5 9 5 19 10 ENE 1018,5 6 0 0,0
16.12.2017 06:00:00 6,2 3,7 13 7 21 11 ENE 1017,4 - 0 0,0
16.12.2017 05:00:00 6,5 3,8 13 7 24 13 NE 1017,0 - 0 0,0
16.12.2017 04:00:00 6,6 4,1 13 7 22 12 NNE 1016,4 10 0 0,0
16.12.2017 03:00:00 7,0 4,5 13 7 28 15 NE 1015,4 - 0 0,6
16.12.2017 02:00:00 7,7 5,3 19 10 41 22 N 1014,6 - 0 0,8
16.12.2017 01:00:00 8,5 5,2 20 11 38 20 NNW 1014,2 8 0 0,0
16.12.2017 00:00:00 8,0 5,6 25 13 69 37 NW 1014,0 - 0 2,2
15.12.2017 23:00:00 10,4 4,3 24 13 53 29 NNW 1012,9 - 0 0,0
15.12.2017 22:00:00 10,0 4,6 39 21 60 32 NW 1012,3 10 0 0,0
15.12.2017 21:00:00 10,1 4,2 36 20 59 32 NW 1011,5 - 0 0,0
15.12.2017 20:00:00 9,8 5,6 32 17 60 32 NNW 1010,4 - 0 0,2
15.12.2017 19:00:00 10,8 5,5 40 21 63 34 NW 1009,6 6 0 0,0
15.12.2017 18:00:00 10,1 4,9 41 22 66 35 NW 1009,1 - 0 0,2
15.12.2017 17:00:00 9,7 4,9 39 21 73 40 NW 1008,4 - 2 0,2
15.12.2017 16:00:00 9,5 5,5 42 23 81 44 NNW 1007,6 6 11 0,2
15.12.2017 15:00:00 11,4 6,5 39 21 78 42 WNW 1007,0 - 31 0,0
15.12.2017 14:00:00 11,1 6,0 51 28 89 48 W 1006,7 - 15 0,2
15.12.2017 13:00:00 10,2 6,2 60 32 101 55 W 1007,0 6 21 0,6
15.12.2017 12:00:00 11,1 6,2 49 26 74 40 W 1007,8 - 14 0,2
15.12.2017 11:00:00 9,5 5,3 29 16 68 37 WNW 1008,5 - 4 0,2
15.12.2017 10:00:00 11,0 4,9 36 19 56 30 W 1008,4 6 23 0,0
15.12.2017 09:00:00 10,6 4,7 37 20 55 30 WNW 1008,1 - 0 0,0
15.12.2017 08:00:00 10,2 4,3 35 19 55 30 WNW 1007,8 - 0 0,0
15.12.2017 07:00:00 9,6 4,6 37 20 63 34 WNW 1007,3 6 0 0,4
15.12.2017 06:00:00 9,8 5,0 43 23 59 32 WNW 1007,0 - 0 0,2
15.12.2017 05:00:00 10,6 4,9 36 20 56 30 WNW 1006,8 - 0 0,0
15.12.2017 04:00:00 9,0 4,8 32 17 54 29 WNW 1006,7 6 0 0,0
15.12.2017 03:00:00 8,5 6,3 35 19 71 38 NW 1007,4 - 0 1,6
15.12.2017 02:00:00 9,1 6,7 42 23 69 37 WNW 1007,2 - 0 0,4
15.12.2017 01:00:00 9,7 7,8 42 23 72 39 WNW 1007,6 6 0 1,6
15.12.2017 00:00:00 11,2 8,2 58 31 76 41 W 1007,4 - 0 0,4
14.12.2017 23:00:00 10,6 8,5 55 30 95 51 W 1008,0 - 0 0,8
14.12.2017 22:00:00 11,8 7,1 69 37 95 51 W 1007,5 6 0 0,0
14.12.2017 21:00:00 12,8 8,1 60 32 96 52 W 1007,5 - 0 0,0
14.12.2017 20:00:00 12,5 8,2 61 33 91 49 W 1008,0 - 0 0,0
14.12.2017 19:00:00 11,9 9,1 62 33 81 44 W 1008,1 6 0 0,2
14.12.2017 18:00:00 13,5 8,3 56 31 76 41 WSW 1008,2 - 0 0,0
14.12.2017 17:00:00 12,9 9,0 45 24 67 36 WSW 1009,3 - 22 0,2
14.12.2017 16:00:00 13,7 8,5 46 25 67 36 WSW 1009,6 10 32 0,0
14.12.2017 15:00:00 13,7 8,3 46 25 71 38 WSW 1010,4 - 60 0,0
14.12.2017 14:00:00 13,7 7,9 48 26 71 39 WSW 1011,2 - 55 0,0
14.12.2017 13:00:00 14,1 8,3 44 24 64 35 WSW 1012,3 6 46 0,0
14.12.2017 12:00:00 14,0 8,8 45 25 61 33 WSW 1013,1 - 32 0,0
14.12.2017 11:00:00 13,5 9,9 41 22 55 30 WSW 1013,8 - 38 0,0
14.12.2017 10:00:00 13,0 9,4 36 19 52 28 WSW 1013,2 6 23 0,0
14.12.2017 09:00:00 12,8 8,5 36 19 53 29 WSW 1014,2 - 0 0,0
14.12.2017 08:00:00 12,7 8,4 39 21 55 30 W 1014,4 - 0 0,0
14.12.2017 07:00:00 13,0 8,7 39 21 51 28 W 1014,5 6 0 0,0
14.12.2017 06:00:00 13,0 8,7 37 20 55 30 W 1014,6 - 0 0,0
14.12.2017 05:00:00 13,0 8,5 38 20 50 27 W 1014,8 - 0 0,0
14.12.2017 04:00:00 13,0 9,3 35 19 57 31 W 1015,1 6 0 0,0
14.12.2017 03:00:00 12,8 9,6 39 21 64 35 W 1015,2 - 0 0,0
14.12.2017 02:00:00 13,0 10,2 41 22 57 31 W 1015,1 - 0 0,2
14.12.2017 01:00:00 13,3 10,3 40 22 56 30 W 1015,2 6 0 0,0
14.12.2017 00:00:00 13,6 10,6 39 21 61 33 W 1015,3 - 0 0,0
13.12.2017 23:00:00 13,5 10,1 46 25 62 34 W 1015,0 - 0 0,0
13.12.2017 22:00:00 13,4 10,7 42 23 61 33 W 1014,6 10 0 0,0
13.12.2017 21:00:00 13,6 11,8 48 26 64 34 W 1014,3 - 0 0,0
13.12.2017 20:00:00 13,3 12,0 43 23 74 40 WSW 1014,0 - 0 0,0
13.12.2017 19:00:00 12,9 12,0 44 24 83 45 SW 1013,7 6 0 0,2
13.12.2017 18:00:00 11,9 10,8 48 26 85 46 SW 1013,6 - 0 0,6
13.12.2017 17:00:00 11,8 10,4 49 27 78 42 SW 1013,8 - 0 0,8
13.12.2017 16:00:00 11,9 10,5 41 22 84 45 SW 1014,0 8 0 0,8
13.12.2017 15:00:00 13,2 11,4 36 19 66 35 SW 1014,4 - 0 0,2
13.12.2017 14:00:00 12,5 10,6 46 25 69 37 SW 1015,3 - 0 1,0
13.12.2017 13:00:00 12,9 10,1 41 22 61 33 SW 1016,8 8 0 0,0
13.12.2017 12:00:00 13,1 11,0 43 23 69 37 SW 1017,2 - 3 0,0
13.12.2017 11:00:00 12,4 10,6 42 23 70 38 SW 1017,8 - 0 0,0
13.12.2017 10:00:00 11,6 9,8 45 24 72 39 SW 1017,7 8 0 0,6
13.12.2017 09:00:00 11,7 7,6 40 22 63 34 SSW 1018,0 - 0 0,0
13.12.2017 08:00:00 10,8 8,0 44 24 66 36 SW 1018,4 - 0 0,0
13.12.2017 07:00:00 12,2 6,2 38 21 59 32 SW 1017,8 10 0 0,0
13.12.2017 06:00:00 11,9 7,2 34 19 51 28 SSW 1018,1 - 0 0,0
13.12.2017 05:00:00 11,5 7,8 33 18 55 30 SW 1018,3 - 0 0,0
13.12.2017 04:00:00 10,5 7,9 27 15 51 28 SW 1019,1 10 0 1,2
13.12.2017 03:00:00 11,3 7,6 34 19 51 28 SW 1019,6 - 0 0,0
13.12.2017 02:00:00 11,1 6,4 28 15 41 22 SSW 1019,3 - 0 0,0
13.12.2017 01:00:00 10,8 4,0 23 12 33 18 SW 1020,1 10 0 0,0
13.12.2017 00:00:00 10,3 4,9 20 11 30 16 SW 1020,3 - 0 0,0
12.12.2017 23:00:00 10,1 4,5 18 10 27 14 WSW 1020,6 - 0 0,0
12.12.2017 22:00:00 9,7 3,9 19 10 28 15 WSW 1020,0 10 0 0,0
12.12.2017 21:00:00 9,9 4,9 20 11 29 15 WSW 1019,8 - 0 0,0
12.12.2017 20:00:00 9,4 3,8 19 11 28 15 WSW 1018,9 - 0 0,0
12.12.2017 19:00:00 9,7 4,3 19 10 30 16 WSW 1019,0 10 0 0,0
12.12.2017 18:00:00 9,5 5,3 20 11 41 22 SW 1018,3 - 0 0,0
12.12.2017 17:00:00 9,3 4,3 26 14 39 21 WSW 1017,7 - 33 0,0
12.12.2017 16:00:00 8,2 5,7 8 4 53 28 S 1017,4 8 13 2,0
12.12.2017 15:00:00 10,6 5,1 22 12 33 18 SSW 1016,7 - 28 0,2
12.12.2017 14:00:00 10,8 4,9 15 8 25 14 S 1016,8 - 50 0,0
12.12.2017 13:00:00 9,9 4,7 14 7 23 12 S 1016,8 10 60 0,0
12.12.2017 12:00:00 8,1 3,2 14 7 23 13 SSE 1016,8 - 60 0,0
12.12.2017 11:00:00 8,0 3,3 15 8 - - SSE 1016,6 - 60 0,2
12.12.2017 10:00:00 6,0 3,0 13 7 22 12 SE 1015,4 10 60 0,0
12.12.2017 09:00:00 4,4 2,3 9 5 18 10 SE 1014,9 - 0 0,0
12.12.2017 08:00:00 4,6 2,1 10 5 16 9 ESE 1013,6 - 0 0,0
12.12.2017 07:00:00 5,0 1,3 8 4 21 11 ENE 1012,6 10 0 0,0
12.12.2017 06:00:00 5,5 2,0 11 6 22 12 NNE 1011,2 - 0 0,0
12.12.2017 05:00:00 6,1 2,9 14 7 25 14 NNE 1010,1 - 0 0,0
12.12.2017 04:00:00 6,6 3,4 16 9 29 16 NE 1008,6 10 0 0,0
12.12.2017 03:00:00 6,5 3,6 14 8 31 17 NNE 1007,3 - 0 0,0
12.12.2017 02:00:00 6,0 3,5 14 7 30 16 N 1005,9 - 0 0,0
12.12.2017 01:00:00 6,0 4,0 11 6 29 15 NNE 1004,8 10 0 0,0
12.12.2017 00:00:00 6,2 4,0 19 10 37 20 N 1003,2 - 0 0,0
11.12.2017 23:00:00 7,7 5,3 18 10 44 24 NNW 1001,2 - 0 0,0
11.12.2017 22:00:00 8,1 4,7 21 12 54 29 NNW 999,3 6 0 0,0

tt = Température de l'air
td = dewpoint
ff = Vitesse du vent
fx = gusts
dd = Direction du vent
ppp = reduced air pressure
vv = visibility
sd = Ensoleillement
rr = Quantités de précipitations

stations d'obs. à proximité